[[{"header":{"parameterUnit":"m.s-1","parameterCategory":1,"la1":30.2991,"la2":30.254,"lo1":-89.0895,"lo2":-89.0444,"dy":0.0017,"dx":0.0017,"nx":28,"ny":28,"refTime":"2024-08-15T09:00:00:Z","depth":0,"parameterNumber":2,"parameterNumberName":"U-component_of_WINDS"},"data":[0,0,0,0,0,0,0,0,0,0,0,0,0,0,0,0,0,0,0,0,0,0,0,0,0,0,0,0,0,0,0,0,0,0,0,0,0,0,0,0,0,0,0,0,0,0,0,0,0,0,0,0,0,0,0,0,0,0,-0.8118,-0.8118,0,-0.8157,-0.8158,-0.8158,-0.8171,-0.817,-0.817,-0.817,-0.8211,-0.8212,-0.8213,0,0,0,0,0,0,0,0,0,0,0,0,0,-0.8055,-0.8056,-0.8118,-0.8118,-0.8119,-0.8157,-0.8158,-0.8159,-0.8171,-0.817,-0.817,-0.817,-0.8211,-0.8212,-0.8214,0,0,0,0,0,0,0,0,0,0,0,0,0,-0.8087,-0.8056,-0.8118,-0.813,-0.8131,-0.8157,-0.8158,-0.8159,-0.8171,-0.817,-0.817,-0.817,-0.821,-0.8212,-0.8214,-0.8231,0,0,-0.822,-0.822,0,0,0,0,0,0,0,0,-0.8085,-0.8089,-0.8127,-0.8129,-0.813,-0.8159,-0.8151,-0.8183,-0.8171,-0.8156,-0.817,-0.817,-0.8194,-0.8197,-0.8205,-0.8233,-0.8235,-0.822,-0.8221,-0.8222,-0.8222,0,0,0,0,0,0,0,-0.8083,-0.8088,-0.8134,-0.8128,-0.813,-0.8133,-0.8138,-0.8157,-0.8176,-0.8157,-0.8158,-0.8162,-0.8195,-0.8203,-0.8206,-0.8236,-0.822,-0.8221,-0.8223,-0.8223,-0.8283,-0.8283,0,0,0,0,0,0,-0.8078,-0.8086,-0.8132,-0.8135,-0.8107,-0.8135,-0.814,-0.815,-0.8176,-0.8179,-0.8163,-0.8163,-0.82,-0.8204,-0.8208,-0.8231,-0.8222,-0.8224,-0.8225,-0.8283,-0.8283,-0.8284,0,0,0,0,0,0,-0.8077,-0.8082,-0.8131,-0.811,-0.8117,-0.8136,-0.8148,-0.8151,-0.8159,-0.818,-0.8184,-0.8168,-0.82,-0.8205,-0.8226,-0.8233,-0.8224,-0.8226,-0.8282,-0.8283,-0.8283,-0.8277,0,0,0,0,0,0,-0.8075,-0.8082,-0.8088,-0.8111,-0.8118,-0.8147,-0.8148,-0.8152,-0.8163,-0.8163,-0.8186,-0.8189,-0.82,-0.8223,-0.8228,-0.8235,-0.8228,-0.8281,-0.8282,-0.8283,-0.8277,-0.8278,-0.8278,0,0,0,0,0,-0.8073,-0.8084,-0.8088,-0.8094,-0.8126,-0.8148,-0.8152,-0.8164,-0.8163,-0.817,-0.8184,-0.8189,-0.8232,-0.8225,-0.8231,-0.8239,-0.8281,-0.8282,-0.8283,-0.8277,-0.8278,-0.8278,0,0,0,0,0,0,-0.8062,-0.8087,-0.8092,-0.8111,-0.8127,-0.815,-0.8158,-0.8165,-0.8181,-0.8181,-0.8196,-0.8201,-0.8221,-0.8232,-0.8225,-0.8258,-0.8257,-0.8259,-0.825,-0.8251,-0.8252,-0.8248,-0.8229,0,0,0,0,0,-0.8062,-0.8077,-0.8099,-0.8114,-0.8121,-0.8139,-0.8149,-0.8157,-0.8174,-0.8181,-0.8196,-0.8213,-0.8231,-0.8242,-0.8259,-0.8279,-0.8285,-0.8288,-0.8289,-0.8289,-0.829,-0.8304,-0.8306,-0.8287,-0.8287,-0.8287,0,0,-0.8061,-0.8077,-0.8086,-0.8112,-0.8125,-0.8141,-0.8144,-0.816,-0.8173,-0.8184,-0.8204,-0.8216,-0.8236,-0.8258,-0.8268,-0.8267,-0.8297,-0.829,-0.829,-0.8292,-0.8305,-0.8307,-0.8308,-0.8287,-0.8287,-0.8287,0,0,-0.8069,-0.8082,-0.8097,-0.811,-0.8131,-0.8143,-0.8147,-0.8169,-0.8177,-0.8198,-0.8207,-0.8223,-0.8252,-0.8267,-0.8278,-0.8294,-0.8299,-0.8299,-0.8302,-0.8315,-0.8317,-0.8318,-0.8324,-0.8326,-0.8301,-0.8301,-0.8301,0,-0.8065,-0.8089,-0.8103,-0.812,-0.8132,-0.8143,-0.8158,-0.8171,-0.8196,-0.8205,-0.8204,-0.8243,-0.8257,-0.8282,-0.8287,-0.8295,-0.8301,-0.8296,-0.8315,-0.8317,-0.8318,-0.8325,-0.8327,-0.8301,-0.8301,-0.8301,-0.8301,0,-0.8085,-0.8102,-0.8111,-0.8136,-0.8149,-0.8165,-0.8182,-0.8194,-0.8202,-0.8214,-0.8237,-0.8255,-0.8276,-0.8283,-0.8291,-0.8311,-0.831,-0.8312,-0.8311,-0.832,-0.8326,-0.8328,-0.83,-0.83,-0.83,-0.83,0,0,-0.8084,-0.8118,-0.8121,-0.8134,-0.8158,-0.8172,-0.8189,-0.8211,-0.8221,-0.8239,-0.8254,-0.828,-0.8283,-0.8296,-0.8306,-0.8317,-0.833,-0.8319,-0.8319,-0.832,-0.8354,-0.8352,-0.8355,-0.8335,-0.8335,-0.8336,-0.8353,0,-0.8095,-0.8126,-0.814,-0.8165,-0.8181,-0.8194,-0.8209,-0.8227,-0.8239,-0.8256,-0.827,-0.8288,-0.8291,-0.8299,-0.8311,-0.8326,-0.8337,-0.8325,-0.835,-0.835,-0.8344,-0.8358,-0.8355,-0.837,-0.8355,-0.8356,-0.8356,0,-0.8111,-0.813,-0.8156,-0.8181,-0.8188,-0.8202,-0.8224,-0.8239,-0.826,-0.8268,-0.8284,-0.8294,-0.8314,-0.8312,-0.8341,-0.8332,-0.8344,-0.8353,-0.8354,-0.8356,-0.8353,-0.836,-0.8375,-0.8377,-0.836,-0.836,-0.8359,0,-0.8109,-0.814,-0.816,-0.817,-0.82,-0.8209,-0.8222,-0.8242,-0.8255,-0.8275,-0.8283,-0.8305,-0.8317,-0.8334,-0.835,-0.8347,-0.8378,-0.8377,-0.8386,-0.8386,-0.8391,-0.839,-0.8408,-0.8399,-0.8399,-0.8399,-0.8399,0,-0.8119,-0.8134,-0.816,-0.8172,-0.8191,-0.8208,-0.8226,-0.824,-0.8259,-0.8275,-0.8288,-0.8303,-0.8323,-0.8341,-0.8354,-0.8377,-0.8382,-0.839,-0.8393,-0.8389,-0.8388,-0.8395,-0.8395,-0.84,-0.8399,-0.8399,-0.8399,0,-0.8118,-0.8136,-0.8159,-0.8185,-0.8193,-0.8205,-0.8228,-0.8242,-0.8256,-0.8276,-0.8282,-0.8304,-0.8327,-0.8345,-0.8374,-0.8383,-0.8406,-0.841,-0.8399,-0.84,-0.8409,-0.8408,-0.8431,-0.8436,-0.8424,-0.8424,-0.8424,0,-0.8123,-0.8136,-0.8164,-0.8176,-0.8189,-0.8207,-0.8221,-0.8239,-0.8252,-0.8279,-0.8289,-0.8312,-0.8332,-0.8367,-0.8386,-0.8409,-0.8413,-0.842,-0.8417,-0.8412,-0.8414,-0.8413,-0.8414,-0.842,-0.842,-0.842,-0.842,0,-0.813,-0.8139,-0.8158,-0.818,-0.8196,-0.8214,-0.8233,-0.8242,-0.8264,-0.8279,-0.8302,-0.8317,-0.8348,-0.8371,-0.8396,-0.8411,-0.842,-0.8422,-0.8425,-0.842,-0.8413,-0.8417,-0.8399,-0.8421,-0.8421,-0.8421,-0.8421,-0.8421,-0.8133,-0.8145,-0.8168,-0.8189,-0.8205,-0.8223,-0.8237,-0.8254,-0.8273,-0.8299,-0.8309,-0.8333,-0.8356,-0.8391,-0.8405,-0.8425,-0.8426,-0.8431,-0.8432,-0.8433,-0.8432,-0.8411,-0.843,-0.843,-0.843,-0.843,-0.843,0,-0.8141,-0.8157,-0.8176,-0.8202,-0.8219,-0.8227,-0.8249,-0.8262,-0.8283,-0.8304,-0.8323,-0.835,-0.8374,-0.8396,-0.842,-0.8432,-0.8437,-0.8438,-0.8437,-0.844,-0.843,-0.8424,-0.8434,-0.8434,-0.8434,-0.8434,-0.8434,-0.8434,-0.8147,-0.8169,-0.818,-0.8211,-0.8227,-0.825,-0.8262,-0.8279,-0.8296,-0.8326,-0.8345,-0.8359,-0.8381,-0.8408,-0.843,-0.8436,-0.8445,-0.8445,-0.8452,-0.8442,-0.8441,-0.844,-0.8435,-0.8447,-0.8447,-0.8461,-0.8461,-0.8461]},{"header":{"parameterUnit":"m.s-1","parameterCategory":1,"la1":30.2991,"la2":30.254,"lo1":-89.0895,"lo2":-89.0444,"dy":0.0017,"dx":0.0017,"nx":28,"ny":28,"refTime":"2024-08-15T09:00:00:Z","depth":0,"parameterNumber":3,"parameterNumberName":"V-component_of_WINDS"},"data":[0,0,0,0,0,0,0,0,0,0,0,0,0,0,0,0,0,0,0,0,0,0,0,0,0,0,0,0,0,0,0,0,0,0,0,0,0,0,0,0,0,0,0,0,0,0,0,0,0,0,0,0,0,0,0,0,0,0,1.5654,1.5655,0,1.5751,1.5752,1.5753,1.5817,1.5817,1.5817,1.5818,1.5916,1.5918,1.592,0,0,0,0,0,0,0,0,0,0,0,0,0,1.5521,1.5523,1.5653,1.5655,1.5656,1.5751,1.5752,1.5754,1.5816,1.5817,1.5817,1.5818,1.5915,1.5918,1.5921,0,0,0,0,0,0,0,0,0,0,0,0,0,1.5594,1.5524,1.5653,1.5699,1.5704,1.5751,1.5752,1.5754,1.5816,1.5817,1.5818,1.5818,1.5914,1.5918,1.5921,1.593,0,0,1.5931,1.5933,0,0,0,0,0,0,0,0,1.559,1.5599,1.5691,1.5696,1.5701,1.5772,1.5742,1.5813,1.5816,1.5774,1.5818,1.5818,1.5868,1.5875,1.5892,1.5934,1.5939,1.5932,1.5934,1.5935,1.5936,0,0,0,0,0,0,0,1.5585,1.5595,1.5692,1.5692,1.5699,1.5714,1.5725,1.5755,1.5816,1.5777,1.5782,1.5793,1.5871,1.5888,1.5895,1.594,1.5931,1.5934,1.5937,1.5938,1.5996,1.5996,0,0,0,0,0,0,1.5573,1.5591,1.5689,1.5695,1.5646,1.5716,1.5728,1.5749,1.5816,1.5827,1.5792,1.5795,1.5882,1.5891,1.5898,1.5914,1.5935,1.5938,1.594,1.5997,1.5996,1.5996,0,0,0,0,0,0,1.557,1.5581,1.5685,1.5644,1.5659,1.5718,1.574,1.575,1.5768,1.5827,1.5838,1.5799,1.5883,1.5893,1.5922,1.5918,1.594,1.5943,1.5997,1.5996,1.5996,1.5945,0,0,0,0,0,0,1.5566,1.5579,1.5583,1.5644,1.5661,1.5707,1.574,1.5752,1.5774,1.5779,1.5837,1.5847,1.5884,1.5917,1.5925,1.5923,1.5945,1.5998,1.5997,1.5996,1.5947,1.5943,1.5939,0,0,0,0,0,1.5561,1.5565,1.5583,1.5595,1.5667,1.5707,1.5716,1.576,1.5774,1.5778,1.5816,1.5845,1.5917,1.5919,1.5929,1.5928,1.5998,1.5997,1.5996,1.5949,1.5944,1.5939,0,0,0,0,0,0,1.5501,1.5573,1.5595,1.5619,1.5656,1.5717,1.5724,1.5752,1.5786,1.579,1.5842,1.5854,1.5878,1.5906,1.5906,1.5941,1.5961,1.5962,1.5922,1.5917,1.5913,1.5906,1.5948,0,0,0,0,0,1.5491,1.5518,1.5579,1.5594,1.5612,1.5665,1.5684,1.5714,1.5755,1.5771,1.5811,1.5849,1.5881,1.59,1.5932,1.5951,1.5965,1.5956,1.5952,1.5948,1.5948,1.5962,1.5959,1.5992,1.5992,1.5992,0,0,1.547,1.5513,1.5526,1.5583,1.5616,1.5643,1.5678,1.5704,1.5724,1.5775,1.5805,1.5835,1.5881,1.5905,1.5918,1.593,1.5942,1.5947,1.5943,1.5946,1.596,1.5957,1.5954,1.5991,1.5992,1.5992,0,0,1.5446,1.548,1.5497,1.553,1.5579,1.5615,1.5618,1.5676,1.5698,1.5729,1.5768,1.5793,1.5846,1.5877,1.59,1.5889,1.5917,1.5898,1.5876,1.5888,1.5886,1.5884,1.5881,1.5879,1.5898,1.5898,1.5898,0,1.5413,1.5455,1.5502,1.5527,1.5551,1.5599,1.5617,1.5646,1.5703,1.5718,1.5731,1.5799,1.5833,1.5866,1.5863,1.588,1.5887,1.5892,1.5882,1.5881,1.5879,1.5877,1.5876,1.5895,1.5896,1.5896,1.5896,0,1.5414,1.5442,1.545,1.5505,1.553,1.5551,1.5601,1.562,1.5649,1.5683,1.5714,1.5757,1.5799,1.5809,1.5836,1.5846,1.5852,1.5872,1.5894,1.5873,1.5872,1.5871,1.5892,1.5892,1.5893,1.5894,0,0,1.5355,1.5436,1.5438,1.5465,1.5523,1.5546,1.5569,1.5611,1.5627,1.5665,1.5686,1.573,1.575,1.5776,1.5808,1.5819,1.5808,1.5838,1.584,1.5832,1.5823,1.5808,1.5806,1.5827,1.5827,1.5827,1.582,0,1.534,1.5385,1.5428,1.5458,1.5485,1.5531,1.5552,1.559,1.5622,1.565,1.5686,1.5717,1.574,1.5756,1.5769,1.5807,1.5807,1.5808,1.5848,1.5849,1.5836,1.5806,1.579,1.578,1.5819,1.5819,1.5819,0,1.5329,1.5366,1.5398,1.5455,1.5468,1.5486,1.5529,1.5554,1.5599,1.5622,1.5651,1.5685,1.5712,1.5729,1.5768,1.5767,1.5786,1.5807,1.5808,1.5814,1.5833,1.5812,1.5778,1.5777,1.5819,1.5819,1.5819,0,1.5284,1.5342,1.5369,1.539,1.5456,1.5468,1.5496,1.5541,1.5564,1.5601,1.5617,1.5656,1.5678,1.5707,1.5751,1.576,1.5785,1.5806,1.5805,1.5804,1.5809,1.5808,1.5779,1.5819,1.5819,1.5819,1.5819,0,1.5264,1.5282,1.535,1.5367,1.5389,1.5438,1.5458,1.5491,1.553,1.5554,1.5596,1.5618,1.5673,1.5702,1.5736,1.5763,1.5772,1.5792,1.5801,1.5789,1.5786,1.5802,1.5804,1.5819,1.5819,1.5819,1.5819,0,1.5218,1.5264,1.5297,1.5358,1.5374,1.5387,1.5439,1.5457,1.5492,1.5522,1.5532,1.5587,1.5622,1.5669,1.5718,1.5741,1.5765,1.5778,1.575,1.5756,1.5753,1.5753,1.5734,1.5734,1.5772,1.5772,1.5772,0,1.5202,1.5218,1.528,1.53,1.5327,1.5358,1.5382,1.5431,1.5454,1.5506,1.5518,1.5557,1.5591,1.5646,1.569,1.5728,1.5744,1.5734,1.575,1.5737,1.5745,1.5744,1.5746,1.5731,1.573,1.5729,1.5729,0,1.517,1.5193,1.5226,1.5267,1.5295,1.533,1.5366,1.538,1.5436,1.546,1.5498,1.5524,1.5576,1.5614,1.5658,1.5688,1.5718,1.5724,1.5726,1.5714,1.5698,1.5708,1.5741,1.5724,1.5724,1.5725,1.5725,1.5725,1.514,1.5156,1.5203,1.5239,1.5272,1.5306,1.5326,1.5364,1.5396,1.5443,1.5469,1.5506,1.5551,1.5614,1.5642,1.5671,1.5683,1.5685,1.5686,1.5686,1.5683,1.5692,1.5679,1.568,1.568,1.568,1.568,0,1.5111,1.5144,1.5177,1.5227,1.5255,1.5282,1.5324,1.5346,1.5378,1.5417,1.545,1.5493,1.5531,1.5578,1.5619,1.5634,1.5649,1.5643,1.5643,1.5649,1.567,1.5665,1.563,1.563,1.563,1.563,1.563,1.563,1.51,1.5129,1.5157,1.5203,1.5236,1.5273,1.5295,1.5326,1.5358,1.5405,1.5436,1.5467,1.551,1.5555,1.5591,1.5604,1.5617,1.5607,1.5625,1.5643,1.5648,1.5652,1.5647,1.561,1.561,1.5602,1.5602,1.5602]}]]